QPF
0.00 0.00 0.00 0.00 0.00 0.00 0.00 0.00 0.00 0.00 0.00 0.00 0.00 0.00 0.00 0.00 0.01 0.02 0.03 0.03 0.03 0.03 0.02 0.02 0.02 0.02 0.02 0.02 0.02 0.03 0.03 0.04 0.04 0.03 0.02 0.02 0.02 0.03 0.03 0.03 0.04 0.04 0.04 0.04
0.00 0.00 0.00 0.00 0.00 0.00 0.00 0.00 0.00 0.00 0.00 0.00 0.00 0.00 0.00 0.01 0.02 0.02 0.03 0.04 0.04 0.03 0.02 0.02 0.03 0.04 0.05 0.03 0.02 0.02 0.02 0.03 0.04 0.03 0.02 0.01 0.01 0.02 0.02 0.03 0.03 0.04 0.05 0.05
0.00 0.00 0.00 0.00 0.00 0.00 0.00 0.00 0.00 0.00 0.00 0.00 0.00 0.01 0.01 0.02 0.03 0.04 0.06 0.05 0.03 0.02 0.02 0.02 0.03 0.06 0.13 0.09 0.05 0.03 0.03 0.03 0.04 0.05 0.04 0.02 0.02 0.02 0.02 0.03 0.02 0.03 0.04 0.04
0.00 0.00 0.00 0.00 0.00 0.00 0.00 0.00 0.01 0.01 0.00 0.01 0.01 0.02 0.02 0.02 0.05 0.08 0.08 0.04 0.02 0.02 0.01 0.02 0.01 0.03 0.09 0.15 0.08 0.05 0.04 0.05 0.05 0.05 0.05 0.05 0.05 0.04 0.04 0.04 0.04 0.04 0.05 0.05
0.00 0.00 0.00 0.00 0.00 0.00 0.00 0.01 0.01 0.01 0.01 0.01 0.02 0.02 0.02 0.03 0.03 0.05 0.04 0.03 0.03 0.03 0.02 0.02 0.02 0.01 0.03 0.05 0.05 0.04 0.03 0.03 0.03 0.04 0.04 0.06 0.05 0.06 0.07 0.08 0.08 0.08 0.08 0.09
0.00 0.00 0.00 0.00 0.00 0.00 0.01 0.02 0.02 0.01 0.01 0.01 0.02 0.02 0.03 0.04 0.03 0.02 0.03 0.03 0.05 0.05 0.04 0.03 0.03 0.02 0.03 0.03 0.02 0.02 0.02 0.03 0.03 0.04 0.05 0.07 0.09 0.10 0.10 0.11 0.13 0.16 0.17 0.17
0.00 0.00 0.00 0.00 0.00 0.01 0.01 0.01 0.01 0.01 0.01 0.02 0.02 0.03 0.03 0.03 0.03 0.02 0.02 0.03 0.03 0.04 0.04 0.05 0.05 0.04 0.03 0.02 0.01 0.01 0.02 0.05 0.07 0.08 0.09 0.11 0.15 0.20 0.21 0.19 0.16 0.17 0.20 0.21
0.00 0.00 0.00 0.00 0.01 0.01 0.01 0.01 0.01 0.02 0.02 0.03 0.03 0.03 0.03 0.04 0.05 0.05 0.06 0.06 0.06 0.06 0.06 0.06 0.05 0.04 0.03 0.02 0.01 0.01 0.01 0.02 0.03 0.04 0.06 0.09 0.11 0.13 0.13 0.14 0.14 0.14 0.17 0.18
0.00 0.00 0.00 0.00 0.01 0.01 0.02 0.02 0.01 0.02 0.03 0.03 0.03 0.02 0.02 0.03 0.04 0.04 0.05 0.04 0.04 0.04 0.03 0.02 0.02 0.01 0.01 0.01 0.01 0.01 0.01 0.01 0.00 0.01 0.03 0.05 0.08 0.10 0.10 0.11 0.11 0.10 0.11 0.11
0.01 0.01 0.00 0.00 0.01 0.02 0.02 0.02 0.01 0.01 0.01 0.02 0.02 0.02 0.03 0.03 0.03 0.02 0.02 0.02 0.02 0.02 0.02 0.01 0.01 0.01 0.01 0.01 0.01 0.01 0.00 0.01 0.01 0.02 0.03 0.06 0.09 0.13 0.14 0.13 0.12 0.11 0.08 0.05
0.01 0.01 0.01 0.00 0.01 0.02 0.02 0.02 0.01 0.01 0.02 0.02 0.02 0.02 0.02 0.02 0.01 0.01 0.01 0.01 0.01 0.02 0.02 0.01 0.01 0.01 0.01 0.01 0.01 0.01 0.01 0.01 0.01 0.01 0.02 0.02 0.03 0.04 0.05 0.06 0.06 0.06 0.04 0.03
0.01 0.01 0.01 0.01 0.01 0.02 0.02 0.02 0.02 0.02 0.02 0.02 0.02 0.01 0.01 0.01 0.01 0.02 0.01 0.01 0.01 0.01 0.01 0.01 0.01 0.01 0.01 0.01 0.01 0.01 0.01 0.02 0.02 0.01 0.01 0.02 0.02 0.03 0.04 0.04 0.04 0.03 0.03 0.03
0.01 0.01 0.01 0.01 0.01 0.01 0.01 0.01 0.01 0.01 0.01 0.01 0.01 0.01 0.01 0.01 0.01 0.02 0.02 0.02 0.01 0.00 0.01 0.01 0.01 0.01 0.01 0.01 0.01 0.01 0.01 0.02 0.02 0.02 0.02 0.03 0.03 0.03 0.03 0.04 0.03 0.04 0.04 0.04
0.03 0.03 0.02 0.01 0.01 0.01 0.01 0.01 0.01 0.01 0.02 0.02 0.02 0.01 0.01 0.01 0.02 0.02 0.01 0.01 0.01 0.00 0.00 0.00 0.00 0.01 0.01 0.01 0.02 0.02 0.02 0.02 0.03 0.03 0.04 0.04 0.04 0.04 0.05 0.04 0.03 0.03 0.03 0.03
0.03 0.02 0.01 0.01 0.00 0.01 0.01 0.00 0.00 0.01 0.02 0.03 0.03 0.02 0.01 0.01 0.02 0.01 0.01 0.01 0.00 0.00 0.00 0.00 0.01 0.01 0.01 0.02 0.02 0.03 0.03 0.04 0.05 0.05 0.06 0.06 0.05 0.05 0.04 0.04 0.03 0.02 0.02 0.02
0.01 0.01 0.01 0.01 0.00 0.00 0.00 0.00 0.00 0.01 0.03 0.03 0.02 0.02 0.02 0.01 0.01 0.01 0.00 0.00 0.00 0.00 0.00 0.02 0.04 0.04 0.03 0.03 0.04 0.07 0.07 0.06 0.07 0.07 0.08 0.08 0.07 0.05 0.04 0.03 0.03 0.03 0.03 0.03
0.01 0.00 0.00 0.00 0.00 0.00 0.00 0.00 0.01 0.02 0.03 0.03 0.03 0.02 0.02 0.01 0.01 0.02 0.01 0.01 0.01 0.00 0.01 0.02 0.06 0.10 0.12 0.10 0.08 0.08 0.08 0.07 0.06 0.06 0.07 0.09 0.10 0.08 0.06 0.04 0.03 0.03 0.02 0.03
0.01 0.01 0.00 0.00 0.01 0.01 0.01 0.01 0.01 0.03 0.03 0.02 0.03 0.02 0.02 0.01 0.01 0.02 0.02 0.02 0.02 0.01 0.01 0.02 0.02 0.03 0.05 0.08 0.08 0.07 0.08 0.08 0.06 0.05 0.06 0.09 0.13 0.13 0.11 0.08 0.05 0.05 0.04 0.03
0.01 0.01 0.01 0.01 0.02 0.01 0.01 0.01 0.02 0.02 0.01 0.01 0.01 0.02 0.02 0.02 0.02 0.02 0.03 0.04 0.04 0.03 0.01 0.01 0.01 0.01 0.01 0.02 0.04 0.03 0.03 0.04 0.04 0.05 0.05 0.06 0.09 0.11 0.10 0.07 0.05 0.04 0.04 0.04
0.01 0.01 0.01 0.01 0.02 0.01 0.01 0.01 0.01 0.01 0.00 0.00 0.00 0.01 0.02 0.02 0.02 0.01 0.02 0.03 0.04 0.04 0.02 0.01 0.01 0.01 0.01 0.01 0.02 0.01 0.02 0.01 0.01 0.02 0.02 0.02 0.03 0.04 0.04 0.04 0.04 0.05 0.05 0.05
0.01 0.01 0.01 0.01 0.01 0.01 0.01 0.01 0.01 0.01 0.01 0.00 0.00 0.01 0.02 0.03 0.02 0.02 0.01 0.01 0.02 0.02 0.02 0.02 0.01 0.01 0.01 0.01 0.01 0.01 0.01 0.01 0.02 0.03 0.03 0.04 0.03 0.02 0.02 0.02 0.02 0.03 0.03 0.03
0.01 0.01 0.01 0.01 0.01 0.01 0.01 0.00 0.01 0.01 0.01 0.01 0.01 0.01 0.02 0.02 0.05 0.06 0.02 0.01 0.01 0.01 0.01 0.01 0.01 0.01 0.01 0.01 0.00 0.00 0.00 0.00 0.01 0.01 0.02 0.03 0.04 0.04 0.04 0.04 0.04 0.04 0.04 0.04
0.01 0.01 0.01 0.01 0.01 0.01 0.01 0.01 0.01 0.01 0.01 0.01 0.01 0.01 0.02 0.02 0.03 0.05 0.04 0.02 0.01 0.01 0.01 0.01 0.01 0.02 0.02 0.02 0.01 0.01 0.01 0.01 0.01 0.01 0.02 0.02 0.02 0.03 0.03 0.04 0.04 0.04 0.04 0.05
0.01 0.01 0.01 0.01 0.01 0.01 0.01 0.01 0.01 0.02 0.01 0.01 0.02 0.02 0.01 0.01 0.02 0.02 0.02 0.02 0.01 0.01 0.01 0.01 0.02 0.02 0.02 0.02 0.02 0.01 0.01 0.01 0.01 0.02 0.03 0.02 0.02 0.03 0.03 0.03 0.03 0.03 0.04 0.05
0.02 0.02 0.02 0.02 0.02 0.02 0.02 0.02 0.02 0.02 0.01 0.01 0.02 0.02 0.02 0.01 0.01 0.01 0.01 0.01 0.00 0.01 0.01 0.01 0.01 0.01 0.01 0.02 0.02 0.02 0.02 0.02 0.04 0.05 0.04 0.03 0.04 0.05 0.04 0.04 0.04 0.05 0.05 0.05
0.03 0.04 0.03 0.03 0.02 0.02 0.02 0.02 0.02 0.01 0.01 0.02 0.02 0.02 0.01 0.01 0.00 0.00 0.00 0.00 0.00 0.00 0.00 0.00 0.00 0.01 0.01 0.01 0.02 0.02 0.03 0.05 0.06 0.05 0.04 0.05 0.06 0.06 0.05 0.05 0.06 0.06 0.05 0.04
0.04 0.05 0.05 0.05 0.03 0.03 0.03 0.03 0.03 0.02 0.01 0.02 0.02 0.03 0.02 0.01 0.01 0.01 0.00 0.00 0.00 0.01 0.00 0.00 0.01 0.01 0.02 0.02 0.02 0.03 0.04 0.04 0.03 0.03 0.04 0.05 0.06 0.06 0.06 0.06 0.06 0.05 0.04 0.03
MSLP
1011.65 1012.03 1012.45 1012.90 1013.34 1013.71 1013.94 1013.97 1013.76 1013.31 1012.65 1011.86 1011.02 1010.23 1009.58 1009.13 1008.91 1008.89 1009.04 1009.28 1009.54 1009.73 1009.81 1009.77 1009.60 1009.35 1009.06 1008.78 1008.56 1008.42 1008.37 1008.39 1008.46 1008.53 1008.58 1008.59 1008.54 1008.45 1008.34 1008.25 1008.22 1008.29 1008.48 1008.81
1012.14 1012.43 1012.70 1012.94 1013.14 1013.27 1013.29 1013.18 1012.93 1012.52 1012.00 1011.40 1010.80 1010.25 1009.81 1009.50 1009.35 1009.34 1009.42 1009.56 1009.68 1009.75 1009.75 1009.66 1009.50 1009.29 1009.09 1008.90 1008.77 1008.71 1008.70 1008.73 1008.76 1008.77 1008.73 1008.62 1008.46 1008.25 1008.02 1007.83 1007.70 1007.67 1007.79 1008.06
1012.65 1012.84 1012.94 1012.98 1012.97 1012.89 1012.75 1012.55 1012.27 1011.93 1011.55 1011.15 1010.76 1010.41 1010.13 1009.94 1009.82 1009.76 1009.74 1009.73 1009.70 1009.63 1009.52 1009.37 1009.21 1009.05 1008.91 1008.82 1008.79 1008.80 1008.84 1008.89 1008.90 1008.86 1008.75 1008.55 1008.29 1007.99 1007.68 1007.40 1007.19 1007.10 1007.16 1007.38
1013.18 1013.23 1013.17 1013.03 1012.83 1012.59 1012.33 1012.07 1011.80 1011.54 1011.29 1011.06 1010.85 1010.67 1010.52 1010.38 1010.25 1010.13 1009.98 1009.81 1009.62 1009.41 1009.18 1008.97 1008.78 1008.65 1008.57 1008.56 1008.61 1008.68 1008.77 1008.82 1008.83 1008.76 1008.60 1008.35 1008.04 1007.68 1007.33 1007.00 1006.76 1006.63 1006.65 1006.83
1013.64 1013.55 1013.34 1013.04 1012.69 1012.33 1012.00 1011.70 1011.46 1011.27 1011.14 1011.06 1011.00 1010.94 1010.87 1010.77 1010.62 1010.41 1010.15 1009.83 1009.49 1009.14 1008.81 1008.53 1008.32 1008.20 1008.16 1008.19 1008.29 1008.40 1008.51 1008.58 1008.58 1008.49 1008.31 1008.05 1007.73 1007.37 1007.01 1006.70 1006.46 1006.33 1006.34 1006.50
1013.96 1013.73 1013.38 1012.95 1012.50 1012.06 1011.68 1011.37 1011.17 1011.06 1011.03 1011.05 1011.10 1011.13 1011.12 1011.03 1010.86 1010.58 1010.23 1009.81 1009.35 1008.90 1008.50 1008.17 1007.93 1007.80 1007.77 1007.82 1007.93 1008.06 1008.17 1008.24 1008.24 1008.15 1007.97 1007.73 1007.43 1007.11 1006.81 1006.54 1006.35 1006.25 1006.29 1006.45
1014.04 1013.68 1013.23 1012.71 1012.19 1011.71 1011.32 1011.03 1010.87 1010.82 1010.86 1010.97 1011.09 1011.18 1011.21 1011.13 1010.94 1010.63 1010.23 1009.75 1009.23 1008.73 1008.29 1007.92 1007.66 1007.52 1007.48 1007.53 1007.62 1007.73 1007.83 1007.88 1007.87 1007.79 1007.64 1007.44 1007.21 1006.97 1006.74 1006.57 1006.46 1006.43 1006.51 1006.70
1013.82 1013.37 1012.85 1012.29 1011.75 1011.27 1010.90 1010.64 1010.52 1010.52 1010.62 1010.77 1010.93 1011.06 1011.11 1011.05 1010.86 1010.55 1010.14 1009.65 1009.14 1008.63 1008.18 1007.82 1007.55 1007.39 1007.33 1007.34 1007.40 1007.47 1007.53 1007.55 1007.53 1007.46 1007.35 1007.21 1007.06 1006.93 1006.83 1006.77 1006.77 1006.83 1006.98 1007.21
1013.30 1012.81 1012.26 1011.71 1011.20 1010.76 1010.43 1010.23 1010.15 1010.19 1010.31 1010.49 1010.66 1010.80 1010.86 1010.81 1010.64 1010.36 1009.98 1009.53 1009.06 1008.59 1008.17 1007.81 1007.55 1007.37 1007.27 1007.23 1007.23 1007.24 1007.24 1007.23 1007.19 1007.14 1007.07 1007.01 1006.97 1006.96 1006.99 1007.06 1007.19 1007.36 1007.60 1007.88
1012.55 1012.05 1011.54 1011.05 1010.61 1010.25 1009.99 1009.85 1009.81 1009.87 1010.01 1010.17 1010.34 1010.46 1010.52 1010.48 1010.33 1010.09 1009.76 1009.38 1008.96 1008.56 1008.18 1007.85 1007.59 1007.38 1007.23 1007.13 1007.05 1006.98 1006.92 1006.85 1006.80 1006.76 1006.74 1006.77 1006.84 1006.96 1007.13 1007.35 1007.61 1007.90 1008.23 1008.59
1011.67 1011.22 1010.79 1010.40 1010.07 1009.81 1009.65 1009.57 1009.57 1009.65 1009.77 1009.91 1010.04 1010.13 1010.15 1010.11 1009.98 1009.77 1009.50 1009.18 1008.83 1008.48 1008.15 1007.84 1007.57 1007.33 1007.12 1006.93 1006.76 1006.61 1006.47 1006.36 1006.28 1006.25 1006.28 1006.39 1006.56 1006.81 1007.13 1007.49 1007.89 1008.31 1008.74 1009.19
1010.80 1010.45 1010.13 1009.87 1009.67 1009.54 1009.47 1009.46 1009.50 1009.58 1009.67 1009.76 1009.82 1009.85 1009.84 1009.76 1009.62 1009.44 1009.20 1008.93 1008.64 1008.33 1008.03 1007.73 1007.43 1007.14 1006.85 1006.58 1006.31 1006.07 1005.85 1005.69 1005.58 1005.56 1005.64 1005.81 1006.09 1006.46 1006.90 1007.40 1007.93 1008.48 1009.02 1009.56
1010.07 1009.83 1009.65 1009.53 1009.47 1009.46 1009.49 1009.54 1009.60 1009.66 1009.71 1009.73 1009.72 1009.67 1009.59 1009.46 1009.30 1009.10 1008.88 1008.63 1008.36 1008.08 1007.78 1007.46 1007.13 1006.78 1006.42 1006.05 1005.69 1005.36 1005.07 1004.86 1004.73 1004.72 1004.83 1005.06 1005.43 1005.90 1006.45 1007.07 1007.72 1008.38 1009.03 1009.65
1009.57 1009.45 1009.40 1009.41 1009.48 1009.57 1009.68 1009.77 1009.84 1009.87 1009.86 1009.80 1009.70 1009.56 1009.39 1009.19 1008.98 1008.75 1008.51 1008.26 1007.99 1007.71 1007.40 1007.05 1006.68 1006.27 1005.84 1005.40 1004.96 1004.56 1004.21 1003.96 1003.82 1003.81 1003.94 1004.23 1004.66 1005.21 1005.85 1006.56 1007.31 1008.07 1008.80 1009.50
1009.32 1009.30 1009.36 1009.49 1009.65 1009.82 1009.97 1010.08 1010.13 1010.11 1010.03 1009.88 1009.68 1009.44 1009.18 1008.90 1008.62 1008.35 1008.08 1007.81 1007.53 1007.23 1006.90 1006.53 1006.12 1005.67 1005.19 1004.70 1004.22 1003.77 1003.40 1003.13 1002.98 1002.97 1003.13 1003.45 1003.92 1004.52 1005.22 1006.00 1006.81 1007.62 1008.42 1009.17
1009.30 1009.36 1009.51 1009.70 1009.92 1010.12 1010.28 1010.37 1010.38 1010.30 1010.13 1009.89 1009.58 1009.24 1008.88 1008.53 1008.18 1007.85 1007.54 1007.24 1006.94 1006.63 1006.29 1005.91 1005.49 1005.04 1004.55 1004.05 1003.56 1003.12 1002.75 1002.49 1002.35 1002.37 1002.54 1002.88 1003.37 1003.99 1004.71 1005.50 1006.33 1007.17 1008.00 1008.78
1009.47 1009.58 1009.76 1009.98 1010.20 1010.39 1010.52 1010.56 1010.50 1010.34 1010.07 1009.73 1009.32 1008.88 1008.43 1007.99 1007.58 1007.20 1006.85 1006.53 1006.22 1005.90 1005.57 1005.22 1004.82 1004.40 1003.95 1003.50 1003.06 1002.67 1002.35 1002.13 1002.03 1002.08 1002.28 1002.62 1003.11 1003.72 1004.42 1005.19 1006.00 1006.82 1007.63 1008.40
1009.75 1009.88 1010.06 1010.26 1010.45 1010.59 1010.64 1010.60 1010.45 1010.18 1009.81 1009.36 1008.85 1008.31 1007.77 1007.26 1006.79 1006.36 1005.98 1005.64 1005.33 1005.04 1004.75 1004.44 1004.12 1003.77 1003.42 1003.06 1002.73 1002.43 1002.20 1002.07 1002.04 1002.13 1002.35 1002.70 1003.17 1003.74 1004.39 1005.11 1005.86 1006.62 1007.38 1008.11
1010.09 1010.20 1010.35 1010.50 1010.62 1010.67 1010.63 1010.47 1010.20 1009.82 1009.34 1008.78 1008.17 1007.54 1006.92 1006.34 1005.81 1005.34 1004.93 1004.59 1004.29 1004.03 1003.80 1003.57 1003.35 1003.12 1002.90 1002.69 1002.50 1002.35 1002.25 1002.23 1002.29 1002.45 1002.70 1003.05 1003.49 1004.01 1004.60 1005.23 1005.89 1006.57 1007.24 1007.90
1010.43 1010.52 1010.62 1010.69 1010.72 1010.66 1010.50 1010.23 1009.83 1009.33 1008.73 1008.07 1007.36 1006.64 1005.94 1005.29 1004.70 1004.19 1003.76 1003.41 1003.13 1002.91 1002.74 1002.61 1002.51 1002.42 1002.36 1002.31 1002.30 1002.31 1002.37 1002.49 1002.66 1002.89 1003.18 1003.54 1003.95 1004.42 1004.93 1005.46 1006.02 1006.60 1007.18 1007.76
1010.75 1010.81 1010.85 1010.85 1010.77 1010.60 1010.33 1009.93 1009.42 1008.80 1008.09 1007.32 1006.52 1005.72 1004.94 1004.22 1003.58 1003.02 1002.56 1002.20 1001.93 1001.75 1001.64 1001.60 1001.61 1001.66 1001.75 1001.88 1002.04 1002.23 1002.45 1002.70 1002.99 1003.30 1003.64 1004.01 1004.41 1004.82 1005.26 1005.71 1006.17 1006.64 1007.13 1007.63
1011.04 1011.07 1011.06 1010.98 1010.81 1010.54 1010.16 1009.65 1009.04 1008.32 1007.52 1006.67 1005.79 1004.91 1004.07 1003.29 1002.59 1001.98 1001.49 1001.10 1000.83 1000.66 1000.60 1000.62 1000.72 1000.89 1001.12 1001.39 1001.71 1002.05 1002.42 1002.80 1003.19 1003.58 1003.97 1004.36 1004.74 1005.12 1005.50 1005.88 1006.26 1006.65 1007.06 1007.50
1011.29 1011.30 1011.24 1011.10 1010.86 1010.51 1010.04 1009.45 1008.76 1007.98 1007.12 1006.21 1005.27 1004.34 1003.45 1002.62 1001.87 1001.22 1000.68 1000.26 999.97 999.80 999.75 999.80 999.96 1000.21 1000.53 1000.91 1001.34 1001.80 1002.28 1002.77 1003.24 1003.70 1004.14 1004.55 1004.93 1005.29 1005.63 1005.95 1006.28 1006.62 1006.98 1007.37
1011.49 1011.47 1011.38 1011.20 1010.91 1010.51 1009.99 1009.37 1008.64 1007.82 1006.93 1006.00 1005.05 1004.10 1003.19 1002.33 1001.55 1000.86 1000.29 999.83 999.51 999.31 999.25 999.30 999.48 999.75 1000.12 1000.56 1001.06 1001.59 1002.14 1002.69 1003.22 1003.72 1004.19 1004.62 1005.00 1005.35 1005.67 1005.98 1006.28 1006.59 1006.93 1007.30
1011.61 1011.58 1011.47 1011.26 1010.95 1010.53 1010.01 1009.38 1008.65 1007.85 1006.98 1006.07 1005.14 1004.22 1003.32 1002.46 1001.68 1000.98 1000.38 999.90 999.54 999.31 999.21 999.25 999.40 999.66 1000.03 1000.47 1000.98 1001.53 1002.10 1002.67 1003.23 1003.75 1004.24 1004.67 1005.06 1005.41 1005.73 1006.03 1006.32 1006.63 1006.97 1007.34
1011.63 1011.59 1011.47 1011.26 1010.96 1010.55 1010.05 1009.45 1008.78 1008.03 1007.23 1006.39 1005.53 1004.66 1003.82 1003.01 1002.25 1001.57 1000.97 1000.48 1000.10 999.84 999.71 999.70 999.81 1000.03 1000.35 1000.76 1001.24 1001.76 1002.31 1002.86 1003.40 1003.92 1004.39 1004.83 1005.21 1005.57 1005.89 1006.19 1006.50 1006.81 1007.16 1007.55
1011.54 1011.49 1011.37 1011.17 1010.89 1010.52 1010.07 1009.54 1008.95 1008.29 1007.60 1006.86 1006.11 1005.34 1004.59 1003.87 1003.18 1002.55 1001.98 1001.51 1001.12 1000.85 1000.68 1000.62 1000.68 1000.85 1001.10 1001.45 1001.87 1002.33 1002.82 1003.33 1003.82 1004.30 1004.75 1005.17 1005.54 1005.89 1006.21 1006.53 1006.84 1007.18 1007.54 1007.95
Thickness
5747 5755 5757 5757 5756 5751 5747 5741 5734 5741 5741 5753 5759 5761 5762 5762 5760 5759 5758 5756 5754 5752 5750 5749 5748 5746 5745 5744 5742 5741 5738 5735 5734 5732 5730 5729 5727 5726 5725 5724 5722 5720 5719 5717
5742 5750 5751 5749 5752 5750 5749 5746 5742 5743 5744 5757 5758 5758 5756 5755 5754 5752 5751 5751 5750 5748 5746 5744 5742 5740 5738 5737 5736 5734 5732 5730 5728 5726 5725 5723 5722 5721 5720 5718 5716 5714 5713 5712
5723 5734 5742 5732 5743 5745 5745 5746 5743 5739 5745 5751 5750 5750 5749 5749 5748 5747 5746 5746 5745 5743 5742 5740 5737 5735 5733 5731 5729 5728 5726 5724 5722 5720 5718 5717 5716 5714 5713 5711 5710 5708 5706 5705
5711 5722 5712 5731 5750 5750 5744 5744 5746 5746 5746 5747 5747 5747 5747 5747 5745 5742 5741 5740 5739 5738 5736 5735 5734 5731 5728 5725 5723 5722 5720 5717 5716 5714 5712 5710 5708 5707 5705 5704 5702 5701 5700 5698
5697 5701 5710 5731 5743 5743 5738 5736 5743 5740 5741 5741 5742 5741 5739 5742 5742 5740 5737 5735 5733 5733 5731 5729 5727 5725 5722 5719 5717 5715 5713 5711 5710 5707 5705 5703 5701 5698 5697 5696 5694 5693 5692 5691
5694 5697 5696 5721 5742 5747 5739 5725 5739 5738 5735 5734 5734 5723 5728 5737 5736 5734 5732 5730 5728 5727 5725 5722 5720 5717 5714 5711 5710 5708 5707 5705 5703 5701 5698 5696 5694 5692 5690 5688 5687 5686 5684 5683
5691 5694 5703 5727 5737 5739 5716 5720 5736 5735 5733 5730 5726 5725 5728 5730 5729 5727 5725 5723 5721 5719 5716 5714 5713 5710 5706 5704 5703 5702 5701 5699 5697 5694 5691 5690 5688 5686 5683 5681 5679 5677 5676 5674
5682 5687 5697 5727 5728 5721 5721 5731 5732 5730 5729 5725 5723 5723 5722 5721 5720 5719 5717 5715 5713 5710 5707 5706 5705 5703 5700 5698 5697 5695 5693 5691 5689 5687 5685 5682 5679 5678 5676 5673 5671 5668 5667 5665
5691 5696 5711 5719 5722 5726 5725 5723 5725 5724 5723 5720 5718 5716 5715 5714 5713 5711 5710 5707 5704 5701 5699 5698 5697 5695 5692 5691 5689 5687 5685 5684 5682 5680 5677 5675 5672 5670 5667 5665 5662 5660 5658 5656
5692 5702 5710 5715 5719 5722 5722 5721 5721 5720 5718 5715 5712 5711 5709 5706 5705 5703 5701 5699 5696 5693 5691 5690 5689 5688 5686 5684 5681 5679 5678 5676 5674 5671 5669 5667 5664 5662 5659 5657 5654 5652 5650 5649
5688 5699 5705 5711 5713 5715 5715 5716 5715 5714 5713 5710 5708 5704 5702 5699 5697 5695 5693 5691 5688 5686 5683 5683 5682 5680 5679 5676 5674 5671 5670 5668 5666 5663 5661 5658 5656 5653 5652 5650 5648 5646 5644 5642
5687 5697 5696 5701 5708 5710 5709 5708 5708 5707 5705 5705 5703 5698 5695 5692 5690 5688 5686 5683 5681 5679 5677 5677 5675 5674 5673 5670 5667 5664 5662 5660 5658 5655 5653 5650 5647 5645 5644 5642 5641 5639 5637 5635
5696 5698 5697 5700 5703 5705 5703 5703 5704 5702 5700 5697 5695 5693 5689 5685 5683 5680 5678 5676 5674 5672 5671 5669 5668 5667 5666 5663 5661 5658 5655 5654 5651 5648 5646 5643 5640 5638 5636 5634 5633 5632 5630 5628
5694 5694 5691 5693 5694 5696 5697 5696 5695 5694 5692 5690 5688 5685 5682 5679 5676 5673 5671 5670 5668 5666 5664 5662 5660 5659 5658 5656 5653 5651 5649 5647 5644 5641 5638 5636 5634 5632 5629 5627 5625 5624 5623 5621
5689 5690 5688 5689 5688 5688 5687 5686 5684 5682 5681 5679 5678 5677 5675 5672 5668 5666 5665 5664 5662 5659 5657 5655 5653 5652 5652 5650 5647 5645 5643 5640 5637 5634 5631 5629 5627 5625 5622 5620 5618 5617 5616 5614
5682 5683 5682 5681 5679 5679 5678 5677 5675 5673 5672 5670 5668 5667 5666 5664 5662 5660 5658 5656 5654 5652 5650 5647 5646 5646 5645 5643 5640 5638 5635 5635 5631 5627 5624 5622 5619 5617 5615 5613 5612 5610 5609 5607
5673 5671 5671 5671 5672 5672 5671 5671 5669 5668 5666 5664 5662 5660 5658 5656 5654 5651 5650 5648 5646 5644 5643 5641 5640 5639 5638 5636 5633 5631 5629 5627 5625 5621 5618 5615 5613 5610 5609 5607 5606 5604 5602 5600
5674 5673 5672 5671 5669 5666 5665 5664 5663 5661 5660 5658 5656 5653 5650 5648 5646 5644 5642 5640 5638 5636 5636 5635 5634 5632 5631 5629 5627 5624 5621 5618 5616 5614 5612 5609 5606 5605 5603 5601 5600 5598 5596 5593
5668 5667 5666 5665 5664 5662 5660 5659 5657 5656 5654 5652 5649 5646 5643 5641 5639 5636 5634 5632 5630 5629 5629 5628 5627 5625 5624 5622 5620 5617 5614 5612 5610 5607 5605 5603 5601 5598 5596 5595 5594 5592 5590 5588
5661 5661 5661 5659 5658 5656 5655 5653 5651 5649 5647 5645 5642 5639 5636 5634 5632 5629 5627 5625 5623 5623 5623 5622 5620 5619 5617 5616 5614 5611 5608 5606 5604 5602 5600 5598 5596 5594 5592 5590 5588 5586 5584 5582
5653 5654 5653 5652 5650 5650 5649 5647 5645 5642 5640 5638 5636 5633 5631 5629 5626 5624 5621 5619 5619 5617 5616 5615 5614 5613 5611 5610 5608 5605 5603 5600 5598 5596 5594 5592 5590 5589 5587 5585 5583 5581 5579 5577
5646 5646 5645 5644 5643 5641 5641 5640 5638 5636 5634 5632 5630 5628 5625 5623 5621 5618 5616 5615 5615 5612 5610 5609 5608 5606 5605 5603 5600 5598 5596 5593 5591 5589 5587 5586 5584 5582 5581 5580 5578 5576 5573 5572
5640 5638 5637 5636 5635 5634 5633 5632 5631 5630 5628 5627 5625 5622 5620 5618 5616 5613 5612 5612 5610 5608 5605 5604 5602 5600 5597 5595 5593 5591 5589 5587 5585 5583 5581 5580 5579 5577 5576 5575 5573 5570 5567 5565
5632 5631 5630 5629 5628 5626 5625 5625 5624 5623 5622 5621 5619 5618 5615 5613 5611 5610 5608 5607 5604 5602 5600 5597 5595 5593 5590 5587 5585 5582 5581 5580 5578 5577 5576 5575 5573 5572 5570 5568 5566 5564 5561 5559
5625 5624 5623 5622 5620 5619 5618 5618 5617 5616 5616 5614 5613 5612 5610 5608 5606 5605 5602 5600 5598 5596 5594 5592 5589 5587 5584 5581 5578 5575 5574 5573 5572 5571 5570 5568 5567 5565 5563 5561 5559 5557 5555 5553
5618 5617 5617 5617 5616 5615 5614 5612 5611 5610 5609 5608 5606 5605 5603 5602 5600 5598 5596 5594 5592 5590 5587 5585 5583 5580 5577 5574 5572 5570 5568 5567 5566 5564 5563 5562 5560 5558 5556 5554 5552 5549 5548 5546
5611 5610 5610 5610 5610 5610 5609 5607 5606 5606 5605 5602 5600 5599 5597 5596 5594 5591 5589 5587 5585 5583 5580 5578 5576 5573 5571 5568 5566 5564 5562 5561 5559 5558 5557 5555 5553 5551 5550 5548 5545 5543 5541 5538